{"data":{"norad_id":67019,"epoch":"2026-05-24T17:38:01.119552Z","epoch_age_seconds":95013,"freshness":"FRESH","line1":"1 67019U 25293S   26144.73473518  .00003914  00000+0  33557-3 0  9991","line2":"2 67019  70.0007 262.9153 0003514 267.8370  92.2387 14.98335138 26276","mean_motion":14.98335138,"eccentricity":0.0003514,"inclination_deg":70.0007,"raan_deg":262.9153,"arg_perigee_deg":267.837,"mean_anomaly_deg":92.2387,"bstar":0.00033557,"rev_number":2627,"period_min":96.1066695614,"perigee_km":569.5977099501,"apogee_km":574.48229434721,"semimajor_km":6950.1770021487,"source":"CELESTRAK","updated_at":"2026-05-25T13:38:21.432978Z"}}